Miscellaneous Local Product
Issued by NWS North Platte, NE

Home | Current Version | Previous Version | Text Only | Print | Product List | Glossary On
Versions: 1 2 3 4 5 6 7 8 9 10 11 12 13 14 15 16 17 18 19 20 21 22 23 24 25 26 27 28 29 30 31 32 33 34 35 36 37 38 39 40 41 42 43 44 45 46 47 48 49 50
000
AXUS43 KLBF 221510
MISLBF


WESTERN AND NORTH CENTRAL NEBRASKA HOURLY WEATHER ROUNDUP
NATIONAL WEATHER SERVICE NORTH PLATTE NE
1000 AM CDT TUE JUL 22 2014

***STATIONS NOT REPORTING VARIABLES SUCH AS SKY/WEATHER OR
PRESSURE ARE PROVIDED BY THE NEBRASKA DEPARTMENT OF
ROADS...RAWS...AND APRS NETWORKS...AND ARE NOT UNDER
NATIONAL WEATHER SERVICE QUALITY CONTROL***

...OBSERVATIONS IN AND NEAR THE EASTERN PANHANDLE OF NEBRASKA...

CITY           SKY/WX    TMP DP  RH WIND       PRES   REMARKS
PINE RIDGE     SUNNY     73  63  70 VRB3      30.21S
CHADRON        SUNNY     76  61  59 NE8       30.21R
ALLIANCE       SUNNY     80  53  39 NE16      30.21S
SIDNEY         SUNNY     80  54  40 CALM      30.27R
WHITECLAY        N/A     73  60  63 E6          N/A
RUSHVILLE        N/A     79  50  35 NE20        N/A
GORDON           N/A     81  58  45 N8          N/A
CRESCENT LAKE    N/A     81  56  41 E12G18      N/A
LISCO            N/A     84  54  35 E12         N/A
BIG SPRINGS      N/A     76  61  59 CALM        N/A
$$

...OBSERVATIONS IN NORTH CENTRAL NEBRASKA...

CITY           SKY/WX    TMP DP  RH WIND       PRES   REMARKS
VALENTINE      SUNNY     76  62  62 E9        30.12F
THEDFORD       SUNNY     80  60  49 NE10      30.19R
AINSWORTH      MOSUNNY   73  62  70 NE7       30.15F
O`NEILL        MOSUNNY   75  61  61 N14       30.15R
BROKEN BOW     MOSUNNY   81  61  50 E14G20    30.11R
BROWNLEE         N/A     77  64  62 E9          N/A
SPRINGVIEW       N/A     75  64  70 E3G12       N/A
DUNNING          N/A     79  61  53 E12         N/A
ROSE             N/A     79  69  69 N10         N/A
NEWPORT          N/A     76  66  69 SE3         N/A
SARGENT          N/A     81  62  52 CALM        N/A
COMSTOCK         N/A     85  68  56 E6          N/A
CHAMBERS         N/A     75  62  63 S3          N/A
$$

...OBSERVATIONS IN SOUTHWEST NEBRASKA AND FAR NORTHEAST COLORADO...

CITY           SKY/WX    TMP DP  RH WIND       PRES   REMARKS
WRAY             N/A     82  56  41 E14G21    30.19S
HOLYOKE        FAIR      81  59  47 E7        30.21R
IMPERIAL       SUNNY     80  58  46 CALM      30.18R
OGALLALA       SUNNY     78  60  52 N10       30.20R
NORTH PLATTE   SUNNY     82  60  47 E9        30.13R
MCCOOK         SUNNY     82  61  48 E20G26    30.10R
LEXINGTON      SUNNY     82  62  50 E15       30.08R
PAXTON           N/A     75  62  64 NE3         N/A
SUTHERLAND       N/A     85  65  50 NE6         N/A
BRADY            N/A     80  61  52 CALM        N/A
GOTHENBURG       N/A     77  58  52 E7          N/A
CALLAWAY         N/A     73  65  77 E12         N/A
$$

...NORTH PLATTE AREA...

CITY           SKY/WX    TMP DP  RH WIND       PRES   REMARKS
AIRPORT        SUNNY     82  60  47 E9        30.13R
$$

...SOME WEATHER OBSERVATIONS FROM AROUND THE REGION...

CITY           SKY/WX    TMP DP  RH WIND       PRES   REMARKS
DENVER         MOSUNNY   75  48  38 NW10      30.33R
LARAMIE        SUNNY     65  44  46 S3        30.45S
CHEYENNE       SUNNY     68  55  63 NW12G21   30.38R
SCOTTSBLUFF    SUNNY     78  59  51 SE6       30.23S
RAPID CITY     SUNNY     73  65  75 N7        30.22S
PIERRE         CLOUDY    67  63  87 N18       30.12F
WINNER         FAIR      71  65  81 NE10      30.10S
SIOUX FALLS    MOSUNNY   76  66  71 N12       30.06R
OMAHA          MOSUNNY   86  75  69 NE12      29.97F HX  95
GRAND ISLAND   MOSUNNY   80  63  55 NE6       30.06F
KANSAS CITY    MOSUNNY   82  76  81 SW13      30.03S
WICHITA        MOSUNNY   85  74  69 S12       30.07F HX  92
HAYS           SUNNY     81  63  54 S3        30.10F
LIBERAL        MOSUNNY   77  68  73 SW5       30.16S
GOODLAND       SUNNY     84  59  42 E17       30.17R
$$



USA.gov is the U.S. government's official web portal to all federal, state and local government web resources and services.